Location: Newark
(51.2625°N, 13.3939°E)
Time: 05:25:40
(UTC+00:00)

Explorer 7 - Pass Details

Date: 17 November 2019
Orbit: 485 x 680 km, 50.3° (Epoch: 13 December)

Event Time Altitude Azimuth Distance (km) Brightness Sun altitude
Rises 23:01:11 0° 203° (SSW) 2,938 - -57.8°
Reaches altitude 10° 23:04:07 10° 185° (S) 1,998 - -57.7°
Maximum altitude 23:07:17 19° 141° (SE) 1,477 - -57.7°
Drops below altitude 10° 23:10:22 10° 97° (E) 1,920 - -57.6°
Sets 23:13:06 0° 79° (E) 2,782 - -57.5°
